Tracking 31027 objects as of 19-Jul-2025
HD Live streaming from Space Station
objects crossing your sky now

TIANHUI 2-02B

Track TIANHUI 2-02B now!
10-day predictions


NORAD ID: 49072
Int'l Code: 2021-074B
Perigee: 521.5 km
Apogee: 524.2 km
Inclination: 97.5 °
Period: 94.9 minutes
Semi major axis: 6893 km
RCS: Unknown
Launch date: August 18, 2021
Source: People's Republic of China (PRC)
Launch site: Taiyaun Space Center, China (TSC)
Your satellite tracking list
STARLINK-4324
Track 1 satellite(s)




NASA's NSSDC Master Catalog

Two Line Element Set (TLE):
1 49072U 21074B   25199.70545579  .00001565  00000-0  83180-4 0  9995
2 49072  97.4746 202.4348 0001938  97.8005 262.3449 15.16748279216722
Source of the keplerian elements: AFSPC